When you browse on this site, cookies collect data to enhance your experience and personalize the content and advertising you see.
Visit our Privacy Policy to learn more. By continuing to use the site, you agree to this use of cookies and data.
  • In Switzerland
  • List of Countries
  • For 7 days
  • Water Temperature
  • Satellite Maps
  • Weather Map
  • Weather Widgets
  • user-avatar
    Login

    Hourly Weather Kostrzewy

    Today, 26 April, Friday

    Time Temperature Precipitation Wind Pressure Humidity
    00:00 +16°C° 0 mm 2 mps 744 mmHg 82%
    01:00 +16°C° 0 mm 3 mps 744 mmHg 81%
    02:00 +14°C° 0 mm 3 mps 744 mmHg 81%
    03:00 +14°C° 0 mm 3 mps 744 mmHg 82%
    04:00 +13°C° 0 mm 3 mps 744 mmHg 82%
    05:00 +16°C° 0 mm 3 mps 743 mmHg 78%
    06:00 +17°C° 0 mm 4 mps 743 mmHg 74%
    07:00 +18°C° 0 mm 4 mps 743 mmHg 70%
    08:00 +20°C° 0 mm 4 mps 743 mmHg 63%
    09:00 +22°C° 0 mm 4 mps 743 mmHg 57%
    10:00 +23°C° 0 mm 4 mps 742 mmHg 51%
    11:00 +25°C° 0 mm 4 mps 742 mmHg 48%
    12:00 +26°C° 0 mm 4 mps 742 mmHg 45%
    13:00 +27°C° 0 mm 4 mps 742 mmHg 42%
    14:00 +27°C° 0 mm 4 mps 742 mmHg 43%
    15:00 +27°C° 0 mm 3 mps 741 mmHg 44%
    16:00 +27°C° 0 mm 3 mps 741 mmHg 44%
    17:00 +25°C° 0 mm 3 mps 741 mmHg 50%
    18:00 +24°C° 0 mm 2 mps 741 mmHg 56%
    19:00 +21°C° 0 mm 2 mps 740 mmHg 62%
    20:00 +20°C° 0 mm 2 mps 740 mmHg 64%
    21:00 +19°C° 0 mm 2 mps 741 mmHg 66%
    22:00 +18°C° 0 mm 3 mps 741 mmHg 69%
    23:00 +18°C° 0 mm 3 mps 741 mmHg 76%

    Tomorrow, 27 April, Saturday

    Time Temperature Precipitation Wind Pressure Humidity
    00:00 +17°C° 0 mm 4 mps 741 mmHg 83%
    01:00 +15°C° 0 mm 4 mps 741 mmHg 90%
    02:00 +15°C° 0.2 mm 4 mps 741 mmHg 90%
    03:00 +15°C° 0.2 mm 5 mps 741 mmHg 91%
    04:00 +15°C° 0.2 mm 5 mps 741 mmHg 92%
    05:00 +14°C° 0.1 mm 5 mps 742 mmHg 92%
    06:00 +14°C° 0.1 mm 5 mps 742 mmHg 91%
    07:00 +13°C° 0.1 mm 6 mps 743 mmHg 90%
    08:00 +13°C° 0.1 mm 6 mps 743 mmHg 88%
    09:00 +11°C° 0.1 mm 6 mps 744 mmHg 86%
    10:00 +10°C° 0.1 mm 6 mps 744 mmHg 84%
    11:00 +11°C° 0 mm 6 mps 744 mmHg 79%
    12:00 +13°C° 0 mm 6 mps 744 mmHg 74%
    13:00 +14°C° 0 mm 6 mps 745 mmHg 69%
    14:00 +14°C° 0 mm 5 mps 745 mmHg 67%
    15:00 +14°C° 0 mm 4 mps 745 mmHg 65%
    16:00 +14°C° 0 mm 4 mps 745 mmHg 63%
    17:00 +14°C° 0 mm 3 mps 745 mmHg 66%
    18:00 +13°C° 0 mm 3 mps 745 mmHg 69%
    19:00 +13°C° 0 mm 2 mps 745 mmHg 71%
    20:00 +12°C° 0 mm 2 mps 745 mmHg 72%
    21:00 +12°C° 0 mm 2 mps 745 mmHg 73%
    22:00 +11°C° 0 mm 1 mps 745 mmHg 74%
    23:00 +11°C° 0 mm 1 mps 746 mmHg 74%

    Day after tomorrow, 28 April, Sunday

    Time Temperature Precipitation Wind Pressure Humidity
    00:00 +10°C° 0 mm 1 mps 746 mmHg 75%
    01:00 +10°C° 0 mm 1 mps 746 mmHg 75%
    02:00 +9°C° 0 mm 2 mps 746 mmHg 79%
    03:00 +9°C° 0 mm 3 mps 746 mmHg 84%
    04:00 +8°C° 0 mm 4 mps 746 mmHg 88%
    05:00 +8°C° 0 mm 5 mps 747 mmHg 87%
    06:00 +8°C° 0 mm 5 mps 747 mmHg 85%
    07:00 +9°C° 0 mm 6 mps 747 mmHg 84%
    08:00 +10°C° 0 mm 6 mps 747 mmHg 78%
    09:00 +11°C° 0 mm 6 mps 748 mmHg 72%
    10:00 +11°C° 0 mm 6 mps 748 mmHg 67%
    11:00 +13°C° 0 mm 6 mps 748 mmHg 65%
    12:00 +14°C° 0 mm 5 mps 748 mmHg 62%
    13:00 +14°C° 0 mm 5 mps 748 mmHg 60%
    14:00 +14°C° 0 mm 5 mps 748 mmHg 61%
    15:00 +14°C° 0 mm 5 mps 748 mmHg 61%
    16:00 +13°C° 0 mm 5 mps 748 mmHg 61%
    17:00 +13°C° 0 mm 4 mps 748 mmHg 64%
    18:00 +12°C° 0 mm 4 mps 748 mmHg 66%
    19:00 +11°C° 0 mm 3 mps 748 mmHg 68%
    20:00 +11°C° 0 mm 3 mps 748 mmHg 67%
    21:00 +11°C° 0 mm 4 mps 748 mmHg 67%
    22:00 +11°C° 0 mm 4 mps 748 mmHg 66%
    23:00 +10°C° 0.1 mm 4 mps 748 mmHg 69%

    29 April, Monday

    Time Temperature Precipitation Wind Pressure Humidity
    00:00 +10°C° 0.1 mm 4 mps 748 mmHg 72%
    01:00 +8°C° 0.1 mm 4 mps 748 mmHg 75%
    02:00 +8°C° 0.1 mm 4 mps 748 mmHg 77%
    03:00 +8°C° 0.1 mm 4 mps 748 mmHg 79%
    04:00 +8°C° 0.1 mm 4 mps 748 mmHg 81%
    05:00 +8°C° 0.1 mm 4 mps 748 mmHg 80%
    06:00 +8°C° 0.1 mm 5 mps 748 mmHg 78%
    07:00 +8°C° 0.1 mm 5 mps 748 mmHg 77%
    08:00 +8°C° 0.2 mm 6 mps 747 mmHg 80%
    09:00 +8°C° 0.2 mm 6 mps 747 mmHg 83%
    10:00 +8°C° 0.2 mm 6 mps 747 mmHg 85%
    11:00 +8°C° 2.1 mm 6 mps 747 mmHg 88%
    12:00 +8°C° 2.1 mm 6 mps 747 mmHg 90%
    13:00 +8°C° 2.1 mm 6 mps 746 mmHg 93%
    14:00 +8°C° 1.6 mm 6 mps 746 mmHg 93%
    15:00 +8°C° 1.6 mm 5 mps 746 mmHg 94%
    16:00 +8°C° 1.6 mm 5 mps 746 mmHg 94%
    17:00 +8°C° 0.4 mm 4 mps 746 mmHg 95%
    18:00 +10°C° 0.4 mm 3 mps 745 mmHg 96%
    19:00 +10°C° 0.4 mm 3 mps 745 mmHg 97%
    20:00 +10°C° 0.1 mm 3 mps 745 mmHg 97%
    21:00 +10°C° 0.1 mm 2 mps 746 mmHg 97%
    22:00 +10°C° 0.1 mm 2 mps 746 mmHg 96%
    23:00 +10°C° 0 mm 2 mps 746 mmHg 96%

    30 April, Tuesday

    Time Temperature Precipitation Wind Pressure Humidity
    00:00 +9°C° 0 mm 2 mps 745 mmHg 96%
    01:00 +9°C° 0 mm 3 mps 745 mmHg 95%
    02:00 +8°C° 0 mm 3 mps 746 mmHg 96%
    03:00 +8°C° 0 mm 3 mps 746 mmHg 96%
    04:00 +8°C° 0 mm 3 mps 746 mmHg 96%
    05:00 +9°C° 0.1 mm 3 mps 746 mmHg 93%
    06:00 +10°C° 0.1 mm 3 mps 746 mmHg 90%
    07:00 +11°C° 0.1 mm 4 mps 746 mmHg 87%
    08:00 +12°C° 0.1 mm 4 mps 746 mmHg 79%
    09:00 +13°C° 0.1 mm 4 mps 746 mmHg 71%
    10:00 +15°C° 0.1 mm 4 mps 746 mmHg 63%
    11:00 +15°C° 0 mm 4 mps 746 mmHg 61%
    12:00 +15°C° 0 mm 4 mps 746 mmHg 58%
    13:00 +15°C° 0 mm 4 mps 746 mmHg 55%
    14:00 +15°C° 0 mm 4 mps 746 mmHg 56%
    15:00 +15°C° 0 mm 4 mps 745 mmHg 56%
    16:00 +15°C° 0 mm 4 mps 745 mmHg 56%
    17:00 +14°C° 0 mm 3 mps 745 mmHg 60%
    18:00 +12°C° 0 mm 3 mps 745 mmHg 64%
    19:00 +12°C° 0 mm 2 mps 746 mmHg 68%
    20:00 +12°C° 0 mm 2 mps 746 mmHg 67%
    21:00 +11°C° 0 mm 3 mps 746 mmHg 66%
    22:00 +11°C° 0 mm 3 mps 746 mmHg 64%
    23:00 +10°C° 0 mm 3 mps 746 mmHg 66%

    1 May, Wednesday

    Time Temperature Precipitation Wind Pressure Humidity
    00:00 +10°C° 0 mm 3 mps 746 mmHg 69%
    01:00 +9°C° 0 mm 3 mps 746 mmHg 71%
    02:00 +9°C° 0 mm 3 mps 746 mmHg 71%
    03:00 +9°C° 0 mm 3 mps 746 mmHg 71%
    04:00 +8°C° 0 mm 2 mps 746 mmHg 71%
    05:00 +9°C° 0 mm 2 mps 746 mmHg 70%
    06:00 +9°C° 0 mm 2 mps 746 mmHg 70%
    07:00 +10°C° 0 mm 2 mps 746 mmHg 69%
    08:00 +12°C° 0.1 mm 2 mps 746 mmHg 62%
    09:00 +13°C° 0.1 mm 2 mps 746 mmHg 56%
    10:00 +15°C° 0.1 mm 2 mps 746 mmHg 49%
    11:00 +15°C° 0 mm 2 mps 745 mmHg 48%
    12:00 +15°C° 0 mm 2 mps 745 mmHg 48%
    13:00 +15°C° 0 mm 2 mps 745 mmHg 48%
    14:00 +15°C° 0 mm 2 mps 744 mmHg 48%
    15:00 +15°C° 0 mm 2 mps 744 mmHg 48%
    16:00 +15°C° 0 mm 1 mps 744 mmHg 49%
    17:00 +14°C° 0 mm 1 mps 744 mmHg 54%
    18:00 +13°C° 0 mm 1 mps 744 mmHg 59%
    19:00 +12°C° 0 mm 1 mps 744 mmHg 64%
    20:00 +11°C° 0 mm 1 mps 744 mmHg 65%
    21:00 +11°C° 0 mm 1 mps 744 mmHg 65%
    22:00 +11°C° 0 mm 1 mps 744 mmHg 65%
    23:00 +9°C° 0 mm 2 mps 743 mmHg 67%
    Show more